Temperature
12 11 11 11 12 12 12 12 12 13 13 12 12 12 13 14 13 13 13 13 12 11 11 11 11 11 11 11 10 10 11 11 10 10 10 10 10 10 10 11 11 11 11 11
12 11 11 12 12 12 12 12 12 12 13 12 12 12 13 13 12 13 12 12 12 11 11 10 10 10 10 10 10 10 10 10 10 10 10 10 10 10 10 10 10 10 10 10
11 11 12 12 12 12 12 12 11 11 12 12 11 11 13 13 13 13 12 12 12 11 10 10 10 10 10 10 10 10 10 10 10 10 10 10 10 10 10 10 10 10 10 10
11 12 12 12 11 12 11 12 11 11 10 10 12 10 13 12 12 12 12 12 11 11 10 10 10 10 10 10 10 10 10 10 10 10 10 9 9 9 9 9 9 9 9 10
11 11 11 11 11 11 11 11 11 11 10 10 11 11 11 12 12 11 11 12 11 11 10 10 10 10 10 10 10 10 10 10 10 10 9 9 9 9 9 9 9 9 9 9
11 11 11 11 11 11 10 10 10 10 9 9 11 11 11 12 12 12 11 11 11 11 10 10 9 9 9 9 10 10 9 9 9 9 9 9 9 9 9 9 8 8 8 8
10 10 10 10 10 10 10 9 9 9 9 10 12 11 11 13 13 12 11 11 11 10 10 10 9 9 9 9 9 9 9 9 9 9 9 9 9 9 8 8 8 8 8 8
10 9 10 10 10 9 10 10 9 9 10 11 11 11 11 13 12 12 12 11 11 10 10 10 9 9 9 9 9 9 9 9 9 9 9 8 8 8 8 8 8 8 8 8
10 10 10 10 10 10 10 9 10 9 9 9 11 12 12 12 11 11 11 11 10 10 10 9 9 9 9 9 9 9 9 9 9 9 8 8 8 8 8 8 7 7 7 7
10 9 9 9 9 9 9 10 9 8 9 9 11 12 11 11 11 10 10 10 10 10 9 9 9 9 9 9 9 9 8 8 8 8 8 8 8 8 8 7 7 7 7 7
10 8 8 8 8 8 8 9 9 9 9 9 10 11 12 11 11 10 10 11 10 10 9 9 9 8 8 8 8 8 8 8 8 8 8 8 7 7 7 7 7 7 6 6
9 8 7 9 9 9 9 9 9 8 8 9 8 9 12 11 11 11 11 11 10 10 9 9 8 8 8 8 8 7 8 7 7 7 7 7 7 7 7 6 6 6 6 6
8 7 7 8 7 7 8 8 9 8 7 7 7 9 11 11 11 11 10 10 10 9 9 8 8 8 7 7 7 7 7 7 7 7 7 6 6 6 6 6 6 6 5 5
8 7 7 8 8 7 7 7 8 7 6 6 8 9 10 10 10 10 10 10 9 9 8 8 8 7 7 7 7 7 7 6 6 6 6 6 6 6 5 5 5 5 5 5
7 6 7 8 8 8 7 7 7 6 6 6 8 9 10 10 9 10 10 9 9 8 8 7 7 7 7 6 6 6 6 6 6 6 6 5 5 5 5 5 4 4 4 4
7 6 6 6 7 8 7 7 7 7 7 7 7 8 9 9 10 9 9 9 8 8 7 7 7 7 6 6 6 6 6 5 5 5 5 5 5 4 4 4 4 4 4 3
6 5 5 5 7 6 5 7 7 7 7 7 7 7 8 8 8 8 8 8 8 7 7 6 6 6 6 6 5 5 5 5 5 5 4 4 4 4 4 4 3 3 3 3
5 5 4 4 5 4 7 9 9 8 8 8 7 7 7 7 7 7 7 7 7 7 6 6 5 5 5 5 5 5 5 4 4 4 4 4 4 3 3 3 3 3 3 3
5 4 4 4 4 5 8 8 8 7 6 7 7 7 7 7 6 6 7 6 6 6 6 5 5 5 5 5 4 4 4 4 3 3 3 3 3 3 3 3 2 2 2 2
4 4 3 4 4 4 7 6 7 7 5 6 6 6 6 6 4 5 6 6 6 5 5 5 5 4 4 4 4 4 3 3 3 3 3 3 2 2 2 2 2 2 2 2
2 2 3 3 3 4 6 6 6 5 5 6 6 6 6 5 4 5 5 5 5 5 5 4 4 4 4 4 3 3 3 3 2 2 2 2 2 2 2 2 2 1 1 1
3 3 3 3 3 4 5 5 5 4 5 5 5 5 5 5 4 4 4 4 4 4 4 4 3 3 3 3 3 2 2 2 2 2 1 1 1 1 1 1 1 1 1 1
4 4 4 4 4 5 5 5 5 5 5 5 4 4 4 4 4 4 3 3 3 3 3 3 3 2 2 2 2 2 2 2 1 1 1 1 1 1 1 1 0 0 0 0
4 4 4 3 4 5 5 5 5 4 4 4 4 3 3 3 3 3 3 2 2 2 2 2 2 2 2 2 2 2 1 1 1 1 1 0 0 0 0 0 0 -0 -0 -0
3 3 2 2 3 4 5 4 4 4 3 3 3 3 2 2 2 2 2 2 2 1 1 1 1 1 1 1 1 1 1 1 0 0 0 -0 -0 -0 -0 -0 -0 -0 -0 -0
3 2 2 2 3 3 3 3 3 3 2 2 2 2 2 1 1 1 1 1 1 1 1 1 1 1 1 1 1 1 0 0 -0 -0 -0 -0 -1 -1 -1 -1 -1 -1 -1 -1
Wind_Speed
4 2 2 2 3 5 5 6 7 4 2 3 6 8 6 3 2 3 3 4 5 5 5 6 7 7 6 6 6 6 6 5 4 2 2 2 2 2 2 3 5 5 4 4
3 3 3 3 4 6 6 7 6 3 2 3 6 9 6 3 3 3 3 4 5 6 6 6 7 7 6 6 6 5 5 5 4 2 1 2 2 2 2 2 3 3 3 3
3 0 1 3 4 5 5 4 4 5 5 4 4 6 6 4 4 4 3 4 5 6 7 6 6 7 7 6 6 6 5 5 4 3 2 3 2 2 2 1 1 1 2 2
2 1 2 3 3 4 4 2 4 5 4 3 3 4 4 6 6 5 4 4 5 5 6 6 6 6 6 6 6 6 6 5 5 4 3 4 3 2 2 1 1 1 2 2
2 1 2 3 3 3 2 4 5 5 4 5 4 4 5 5 6 6 6 5 6 6 6 6 6 6 6 6 6 5 5 5 5 5 5 4 3 2 2 2 2 1 1 1
3 1 1 2 2 2 3 4 5 4 2 4 5 5 4 4 6 7 7 6 6 6 6 6 6 6 5 5 6 5 5 5 5 5 5 4 4 4 3 2 2 1 1 1
3 4 3 1 2 2 3 1 1 1 2 5 3 4 5 2 5 7 8 7 6 6 6 6 6 6 6 6 5 5 6 5 5 5 4 4 4 4 4 3 2 2 1 1
3 3 5 3 1 1 3 1 1 2 3 3 2 4 3 4 6 6 6 6 6 5 5 5 5 5 5 6 5 5 5 5 5 5 4 4 3 3 3 3 2 2 2 2
2 1 3 3 1 2 1 2 1 1 3 4 5 3 2 4 6 6 6 6 6 5 5 5 5 5 5 5 5 5 5 5 5 5 5 4 4 4 3 3 2 2 2 2
3 2 3 3 2 3 3 2 1 2 2 4 5 4 4 7 7 7 7 6 6 6 5 4 4 4 4 4 4 4 5 5 5 5 4 3 4 4 4 3 3 3 3 2
2 2 2 3 6 5 4 3 3 3 3 2 4 3 2 5 6 7 7 6 6 5 5 5 4 4 4 4 4 4 4 4 4 4 4 3 3 3 3 3 3 3 3 3
1 1 3 4 2 1 3 4 4 3 4 4 3 4 2 5 5 5 5 4 4 4 4 4 4 4 4 4 4 4 4 4 4 4 4 4 3 3 3 3 3 3 3 3
1 2 2 2 1 1 3 4 4 3 2 4 4 5 1 4 4 3 3 3 3 4 3 3 3 4 4 4 3 4 4 4 4 3 3 3 3 4 4 3 3 3 3 3
1 3 6 6 2 2 4 6 6 5 4 6 8 8 5 3 2 3 4 4 3 4 4 3 3 3 4 4 4 4 4 4 4 4 4 4 4 4 4 3 3 3 3 3
2 4 6 9 8 7 8 9 9 11 10 9 9 10 10 5 3 2 1 2 2 3 3 3 3 3 3 4 4 3 4 4 4 4 4 4 4 4 3 3 3 3 4 4
3 4 4 7 9 10 12 12 13 14 13 15 15 15 9 5 2 2 2 2 2 2 2 2 2 3 3 3 3 3 3 4 4 4 4 4 4 4 4 4 4 4 4 4
4 4 3 5 4 6 10 11 14 11 10 10 13 10 4 4 2 2 2 1 1 1 2 2 2 2 2 2 3 3 3 3 3 4 4 4 4 4 4 4 4 5 5 4
6 5 3 4 3 9 7 2 5 8 9 9 8 5 2 2 2 2 2 2 2 1 1 1 1 1 1 1 2 2 2 3 4 4 5 5 5 5 4 4 5 5 4 5
9 7 5 4 6 9 6 2 2 3 4 2 4 4 2 2 2 3 1 1 1 1 1 2 1 1 2 2 2 2 2 3 4 5 5 5 5 5 5 5 6 5 5 5
5 6 6 5 6 7 2 1 2 2 3 1 1 2 1 1 2 3 1 1 1 1 1 1 1 1 2 2 2 2 3 4 5 5 5 4 4 5 6 6 6 5 5 5
5 6 9 9 8 7 2 2 2 2 3 2 2 2 2 2 4 3 3 2 1 1 1 1 1 2 2 2 2 3 4 5 5 4 4 4 4 5 5 5 5 5 4 5
7 7 7 7 8 7 2 3 2 2 1 2 3 3 3 3 4 4 3 2 2 2 2 1 1 3 3 2 3 4 5 4 3 3 4 4 5 5 4 5 5 5 5 5
6 6 4 6 6 2 3 2 1 1 2 3 3 4 4 5 5 4 4 3 3 3 3 2 3 3 4 3 3 5 5 3 3 3 4 4 4 5 5 5 5 5 5 5
4 2 3 5 5 3 3 2 1 2 3 4 4 5 5 6 5 5 4 4 3 3 3 3 3 4 4 4 4 4 4 3 4 4 4 4 4 5 4 4 4 5 5 5
5 3 5 8 8 7 5 3 3 4 4 5 5 5 5 6 6 5 5 5 4 4 4 3 4 5 5 4 4 4 4 4 4 4 4 4 4 5 5 5 5 6 6 6
6 6 6 7 5 5 6 5 4 4 4 5 5 5 5 5 6 6 5 5 4 5 4 5 5 5 5 5 5 5 4 4 4 4 4 4 4 4 4 4 5 7 8 9
Wind_Direction
196 222 237 260 260 278 289 290 295 312 4 299 269 271 265 217 189 187 181 165 157 154 145 140 140 137 138 140 142 142 137 132 124 129 121 117 109 102 90 84 72 53 45 36
218 236 267 288 283 277 278 283 296 320 354 297 280 277 267 198 183 172 178 161 152 146 142 145 143 143 148 152 151 147 145 141 138 139 134 124 120 121 115 95 81 62 46 29
229 281 276 272 283 291 278 273 298 307 315 254 271 278 229 190 163 156 170 157 153 154 155 155 151 147 154 156 159 155 151 145 145 142 117 106 91 80 73 102 123 98 65 43
239 239 261 263 272 288 283 320 306 303 313 285 235 279 226 180 166 163 168 157 151 149 146 149 150 148 152 156 151 149 152 152 151 148 150 146 149 154 169 166 152 138 112 72
237 194 270 263 283 288 296 326 291 278 277 290 249 245 260 172 178 180 169 155 147 147 147 145 145 147 144 144 146 145 147 152 153 157 160 158 159 160 147 141 140 150 155 139
248 261 292 306 329 272 292 284 263 247 258 267 228 217 257 199 189 170 160 152 146 144 141 139 137 134 135 135 137 143 150 154 155 158 164 167 164 158 155 164 176 183 193 178
219 197 173 230 272 207 254 293 349 305 236 244 201 208 246 182 145 150 156 153 145 143 145 145 145 143 144 144 149 153 153 157 158 159 169 174 174 168 176 185 194 198 200 196
234 219 174 183 231 238 248 254 172 246 277 298 253 230 234 131 115 120 130 139 144 149 148 148 149 150 152 154 157 159 164 167 166 166 174 176 178 173 180 189 192 203 204 204
261 221 130 159 230 287 251 225 278 278 289 279 251 214 159 135 141 148 149 153 161 162 158 153 150 152 156 159 165 170 172 173 173 171 169 176 179 179 186 191 195 200 206 211
309 265 183 152 189 247 281 312 199 195 260 276 268 238 204 173 176 169 170 171 168 162 156 151 152 153 155 159 168 172 175 176 170 167 172 177 183 182 186 190 201 204 209 209
279 231 201 184 205 199 190 219 230 246 242 244 280 280 37 143 154 163 171 168 161 158 157 157 161 161 157 161 167 169 168 164 164 169 173 175 182 186 189 197 206 208 214 214
244 233 245 224 140 25 216 218 196 204 251 242 257 271 38 93 110 129 137 138 140 147 150 153 159 158 163 174 175 172 169 174 178 175 176 180 182 190 200 208 213 210 219 221
190 204 267 241 168 197 247 242 240 254 278 247 241 256 114 109 102 117 141 160 158 161 160 158 160 171 177 179 182 180 179 183 178 174 181 188 195 201 209 214 216 216 219 224
253 237 221 230 249 196 230 230 223 211 218 244 237 252 254 218 187 196 192 183 181 179 175 178 184 185 180 180 181 182 183 178 178 182 192 205 209 207 209 216 220 223 223 225
217 249 254 266 279 271 253 240 225 224 223 232 254 260 264 257 248 238 218 187 189 189 186 195 197 197 182 182 185 184 179 179 182 192 206 215 214 208 208 215 221 226 232 236
217 250 273 267 253 256 259 248 238 238 239 245 260 269 275 288 292 274 261 218 208 210 208 210 206 199 188 185 187 185 192 193 191 203 216 219 214 210 210 214 221 228 236 240
216 218 240 262 264 292 262 237 230 229 226 226 243 254 278 287 282 278 268 243 227 248 235 221 224 213 195 193 190 197 204 198 203 214 219 221 215 214 214 216 223 230 235 241
222 215 228 267 277 247 244 208 209 226 239 228 237 257 275 289 314 308 279 252 255 258 236 243 244 245 217 210 210 200 199 204 216 224 225 224 217 218 219 222 229 234 234 238
218 211 218 225 247 267 259 242 186 217 266 255 246 264 271 310 321 288 263 235 249 254 236 228 227 237 227 228 216 196 219 224 227 230 229 225 216 218 221 228 234 236 237 243
214 215 221 223 236 244 245 74 56 75 261 311 307 297 293 53 277 267 320 325 297 316 269 236 244 255 240 237 207 206 231 231 236 236 233 227 221 224 227 231 236 236 235 242
179 204 220 231 242 259 269 133 103 191 248 357 357 331 303 252 247 279 323 324 315 321 305 287 277 266 255 246 224 228 237 243 240 235 232 230 227 230 235 238 237 232 235 240
190 198 206 213 232 247 157 124 181 238 309 332 331 323 304 287 295 302 295 292 295 292 281 264 259 266 266 253 238 241 243 249 246 232 234 235 234 234 235 232 239 233 228 238
206 206 209 211 226 262 148 185 232 344 311 313 317 316 303 288 282 285 283 281 280 275 269 260 252 265 265 251 234 242 247 240 244 237 236 240 240 237 233 228 233 237 231 235
243 238 257 266 265 281 268 266 281 288 286 301 303 300 297 285 283 288 285 283 283 276 268 258 248 253 261 256 248 245 246 234 230 239 243 241 241 242 238 238 233 233 233 235
264 261 263 268 280 293 274 281 300 304 301 299 295 292 292 290 285 281 278 274 270 272 268 258 251 253 258 257 254 250 246 236 232 238 243 244 244 246 243 243 242 242 239 235
239 236 241 254 271 276 289 316 324 310 301 298 297 296 288 277 275 276 273 269 269 267 266 260 255 257 260 258 258 255 243 234 231 239 241 239 240 245 245 250 268 259 253 258
Height
1493 1495 1496 1494 1492 1492 1490 1490 1489 1485 1483 1485 1484 1481 1478 1477 1478 1478 1479 1481 1483 1484 1486 1488 1489 1490 1492 1494 1496 1498 1500 1501 1503 1504 1505 1507 1509 1510 1511 1512 1513 1514 1514 1515
1493 1495 1493 1491 1490 1490 1489 1490 1488 1485 1483 1484 1483 1480 1475 1475 1476 1477 1478 1479 1481 1483 1485 1487 1488 1489 1491 1493 1495 1496 1498 1500 1501 1503 1504 1506 1508 1509 1510 1510 1511 1512 1513 1513
1493 1492 1490 1490 1490 1489 1489 1490 1489 1489 1485 1482 1484 1480 1474 1472 1473 1475 1477 1478 1479 1481 1483 1485 1487 1488 1490 1492 1493 1495 1497 1499 1500 1502 1503 1505 1506 1507 1508 1509 1510 1511 1511 1511
1491 1490 1490 1490 1490 1490 1491 1488 1488 1489 1492 1490 1485 1489 1473 1470 1472 1473 1475 1476 1478 1480 1482 1484 1486 1487 1489 1490 1492 1494 1496 1498 1499 1500 1502 1503 1505 1505 1506 1507 1508 1508 1509 1509
1490 1489 1490 1490 1490 1490 1490 1488 1489 1489 1490 1491 1483 1486 1477 1468 1472 1472 1473 1475 1477 1479 1481 1483 1484 1486 1488 1489 1491 1493 1494 1496 1497 1499 1500 1502 1503 1504 1505 1506 1506 1506 1507 1507
1489 1489 1490 1490 1489 1489 1489 1489 1488 1489 1492 1495 1481 1483 1477 1469 1467 1469 1471 1473 1476 1478 1480 1482 1483 1485 1486 1488 1489 1491 1492 1494 1495 1497 1498 1500 1501 1502 1502 1503 1503 1504 1504 1505
1489 1489 1489 1490 1490 1489 1490 1494 1497 1496 1495 1488 1474 1477 1473 1462 1461 1464 1468 1471 1474 1477 1479 1480 1482 1483 1484 1486 1487 1489 1490 1492 1493 1495 1496 1497 1499 1499 1500 1501 1501 1501 1502 1502
1489 1491 1488 1489 1489 1491 1489 1490 1499 1500 1493 1483 1476 1477 1468 1460 1461 1464 1467 1470 1473 1475 1477 1479 1480 1482 1483 1484 1485 1487 1488 1489 1491 1492 1494 1495 1496 1497 1497 1498 1498 1499 1499 1499
1487 1488 1487 1487 1488 1489 1489 1490 1489 1494 1490 1491 1478 1466 1464 1461 1462 1464 1467 1469 1471 1474 1475 1477 1479 1480 1481 1482 1483 1485 1486 1487 1489 1490 1491 1492 1493 1494 1494 1495 1495 1496 1496 1496
1485 1489 1486 1487 1489 1489 1489 1487 1492 1495 1496 1490 1473 1465 1466 1463 1463 1464 1466 1468 1470 1472 1474 1476 1477 1478 1480 1481 1482 1483 1484 1485 1486 1487 1488 1489 1490 1491 1491 1492 1492 1492 1493 1492
1485 1489 1489 1488 1487 1487 1490 1490 1489 1490 1488 1491 1485 1474 1458 1458 1459 1462 1464 1466 1469 1470 1472 1474 1475 1477 1478 1479 1480 1480 1481 1482 1483 1484 1485 1486 1487 1487 1487 1488 1488 1489 1489 1489
1485 1488 1489 1484 1482 1482 1483 1483 1487 1494 1490 1485 1486 1479 1458 1457 1458 1461 1463 1466 1467 1469 1470 1472 1473 1474 1475 1476 1477 1478 1478 1479 1480 1481 1482 1482 1483 1483 1484 1484 1485 1485 1485 1484
1485 1488 1491 1486 1488 1486 1485 1482 1483 1485 1489 1489 1487 1477 1460 1458 1460 1461 1463 1465 1466 1467 1468 1470 1471 1472 1473 1474 1474 1475 1475 1476 1477 1478 1478 1479 1479 1479 1480 1480 1480 1480 1480 1479
1484 1486 1488 1484 1479 1482 1483 1482 1482 1486 1492 1486 1477 1469 1462 1460 1461 1462 1463 1463 1465 1465 1466 1467 1468 1469 1470 1471 1471 1472 1472 1473 1474 1474 1475 1475 1475 1476 1476 1476 1476 1475 1475 1475
1484 1486 1480 1477 1475 1475 1476 1477 1479 1481 1479 1480 1469 1464 1459 1459 1459 1460 1461 1461 1462 1463 1464 1464 1465 1466 1467 1467 1468 1469 1469 1470 1470 1470 1471 1471 1471 1472 1472 1471 1471 1471 1471 1470
1482 1483 1480 1479 1473 1472 1472 1470 1470 1471 1470 1468 1465 1461 1455 1456 1457 1458 1459 1459 1460 1460 1461 1462 1462 1463 1464 1464 1465 1465 1465 1466 1466 1466 1466 1467 1467 1467 1467 1467 1467 1466 1466 1465
1480 1482 1483 1479 1470 1471 1471 1460 1459 1460 1457 1459 1461 1457 1454 1455 1455 1456 1456 1457 1457 1458 1459 1459 1459 1460 1460 1461 1461 1461 1461 1462 1462 1462 1462 1462 1462 1462 1462 1462 1462 1461 1461 1461
1478 1480 1482 1479 1476 1479 1456 1447 1448 1450 1450 1452 1451 1451 1452 1453 1453 1454 1454 1455 1455 1455 1456 1456 1456 1456 1457 1457 1458 1458 1458 1457 1457 1457 1457 1457 1457 1457 1457 1457 1456 1456 1456 1455
1472 1476 1479 1478 1475 1463 1450 1447 1448 1449 1451 1449 1449 1450 1450 1451 1451 1452 1452 1452 1452 1453 1453 1453 1453 1453 1453 1453 1453 1453 1453 1453 1453 1452 1452 1452 1452 1452 1452 1452 1451 1451 1451 1450
1469 1472 1476 1474 1472 1465 1449 1448 1446 1449 1454 1449 1448 1448 1448 1449 1453 1451 1449 1449 1449 1449 1449 1449 1449 1449 1449 1449 1449 1449 1448 1448 1448 1448 1448 1448 1448 1447 1447 1447 1446 1446 1445 1445
1470 1472 1472 1470 1467 1457 1448 1447 1447 1456 1454 1449 1447 1447 1448 1449 1449 1448 1447 1447 1446 1446 1446 1446 1446 1446 1445 1445 1445 1444 1443 1443 1443 1443 1443 1443 1443 1442 1442 1441 1441 1440 1440 1439
1461 1464 1465 1465 1464 1458 1447 1447 1450 1450 1448 1447 1446 1446 1446 1446 1446 1445 1445 1444 1443 1443 1443 1442 1442 1442 1441 1441 1441 1440 1439 1439 1439 1438 1438 1437 1437 1437 1436 1436 1435 1435 1434 1433
1453 1453 1453 1453 1451 1446 1444 1445 1446 1446 1445 1445 1445 1444 1444 1443 1442 1442 1441 1440 1440 1439 1439 1438 1438 1437 1437 1437 1436 1435 1434 1434 1433 1433 1432 1432 1432 1432 1431 1431 1430 1429 1428 1428
1448 1447 1448 1447 1443 1442 1443 1443 1443 1443 1443 1442 1442 1441 1441 1440 1439 1438 1437 1437 1436 1435 1435 1434 1433 1432 1432 1432 1431 1431 1430 1429 1429 1428 1427 1427 1427 1426 1426 1425 1424 1424 1423 1422
1446 1447 1447 1445 1442 1441 1439 1440 1440 1440 1439 1439 1438 1437 1437 1436 1435 1434 1433 1432 1432 1431 1430 1430 1429 1428 1427 1427 1426 1426 1425 1425 1424 1423 1422 1422 1421 1421 1420 1419 1419 1418 1418 1418
1442 1444 1445 1442 1440 1440 1438 1437 1437 1436 1436 1435 1434 1433 1432 1432 1431 1430 1429 1428 1427 1426 1425 1425 1424 1423 1422 1421 1421 1420 1420 1419 1419 1418 1417 1417 1416 1415 1414 1414 1413 1412 1412 1412